When you browse on this site, cookies collect data to enhance your experience and personalize the content and advertising you see.
Visit our Privacy Policy to learn more. By continuing to use the site, you agree to this use of cookies and data.
  • In Czech Republic
  • List of Countries
  • For 7 days
  • Water Temperature
  • Satellite Maps
  • Weather Map
  • Weather Widgets
  • user-avatar
    Login

    Hourly Weather Waukesha

    Today, 16 July, Tuesday

    Time Temperature Precipitation Wind Pressure Humidity
    00:00 +23°C° 0 mm 2 mps 738 mmHg 92%
    01:00 +21°C° 0 mm 2 mps 737 mmHg 92%
    02:00 +21°C° 0 mm 3 mps 737 mmHg 91%
    03:00 +21°C° 0 mm 4 mps 736 mmHg 91%
    04:00 +21°C° 0 mm 4 mps 736 mmHg 92%
    05:00 +21°C° 0 mm 3 mps 736 mmHg 93%
    06:00 +21°C° 0 mm 3 mps 737 mmHg 93%
    07:00 +22°C° 0 mm 3 mps 737 mmHg 90%
    08:00 +25°C° 0 mm 3 mps 737 mmHg 87%
    09:00 +26°C° 0 mm 3 mps 737 mmHg 84%
    10:00 +27°C° 0 mm 3 mps 737 mmHg 82%
    11:00 +27°C° 0 mm 3 mps 737 mmHg 80%
    12:00 +28°C° 0 mm 3 mps 737 mmHg 78%
    13:00 +29°C° 0 mm 3 mps 736 mmHg 76%
    14:00 +29°C° 0 mm 2 mps 736 mmHg 73%
    15:00 +30°C° 0 mm 2 mps 736 mmHg 70%
    16:00 +30°C° 0 mm 1 mps 736 mmHg 73%
    17:00 +29°C° 0 mm 1 mps 735 mmHg 76%
    18:00 +29°C° 0 mm 1 mps 735 mmHg 79%
    19:00 +28°C° 0 mm 1 mps 735 mmHg 82%
    20:00 +26°C° 0 mm 1 mps 735 mmHg 84%
    21:00 +23°C° 0 mm 0 mps 735 mmHg 87%
    22:00 +25°C° 1 mm 1 mps 735 mmHg 88%
    23:00 +24°C° 1 mm 1 mps 735 mmHg 89%

    Tomorrow, 17 July, Wednesday

    Time Temperature Precipitation Wind Pressure Humidity
    00:00 +24°C° 1 mm 1 mps 735 mmHg 91%
    01:00 +24°C° 0 mm 1 mps 735 mmHg 90%
    02:00 +24°C° 0 mm 1 mps 735 mmHg 90%
    03:00 +24°C° 0 mm 1 mps 735 mmHg 90%
    04:00 +24°C° 0 mm 1 mps 735 mmHg 89%
    05:00 +24°C° 0 mm 1 mps 736 mmHg 89%
    06:00 +24°C° 0 mm 1 mps 736 mmHg 88%
    07:00 +26°C° 0 mm 1 mps 737 mmHg 83%
    08:00 +27°C° 0 mm 1 mps 737 mmHg 78%
    09:00 +29°C° 0 mm 1 mps 738 mmHg 73%
    10:00 +30°C° 0.2 mm 1 mps 737 mmHg 70%
    11:00 +30°C° 0.2 mm 1 mps 737 mmHg 66%
    12:00 +31°C° 0.2 mm 1 mps 737 mmHg 62%
    13:00 +32°C° 0 mm 1 mps 737 mmHg 61%
    14:00 +32°C° 0 mm 1 mps 737 mmHg 60%
    15:00 +32°C° 0 mm 1 mps 737 mmHg 58%
    16:00 +31°C° 0 mm 2 mps 736 mmHg 64%
    17:00 +30°C° 0 mm 2 mps 736 mmHg 69%
    18:00 +29°C° 0 mm 2 mps 736 mmHg 75%
    19:00 +28°C° 0 mm 3 mps 736 mmHg 77%
    20:00 +26°C° 0 mm 3 mps 736 mmHg 79%
    21:00 +25°C° 0 mm 3 mps 736 mmHg 82%
    22:00 +25°C° 0 mm 4 mps 736 mmHg 82%
    23:00 +25°C° 0 mm 4 mps 735 mmHg 82%

    Day after tomorrow, 18 July, Thursday

    Time Temperature Precipitation Wind Pressure Humidity
    00:00 +26°C° 0 mm 4 mps 735 mmHg 82%
    01:00 +26°C° 0 mm 5 mps 735 mmHg 84%
    02:00 +26°C° 0 mm 5 mps 734 mmHg 85%
    03:00 +26°C° 0 mm 5 mps 734 mmHg 86%
    04:00 +26°C° 0.2 mm 5 mps 734 mmHg 88%
    05:00 +26°C° 0.2 mm 4 mps 734 mmHg 89%
    06:00 +26°C° 0.2 mm 3 mps 734 mmHg 91%
    07:00 +27°C° 0.1 mm 4 mps 734 mmHg 88%
    08:00 +28°C° 0.1 mm 5 mps 734 mmHg 86%
    09:00 +30°C° 0.1 mm 7 mps 734 mmHg 83%
    10:00 +30°C° 0 mm 6 mps 734 mmHg 81%
    11:00 +32°C° 0 mm 6 mps 734 mmHg 78%
    12:00 +33°C° 0 mm 6 mps 734 mmHg 76%
    13:00 +33°C° 0 mm 6 mps 733 mmHg 76%
    14:00 +34°C° 0 mm 6 mps 733 mmHg 76%
    15:00 +34°C° 0 mm 7 mps 732 mmHg 75%
    16:00 +33°C° 0 mm 7 mps 732 mmHg 79%
    17:00 +33°C° 0 mm 6 mps 732 mmHg 82%
    18:00 +32°C° 0 mm 6 mps 732 mmHg 85%
    19:00 +32°C° 0 mm 6 mps 732 mmHg 86%
    20:00 +30°C° 0 mm 6 mps 732 mmHg 87%
    21:00 +29°C° 0 mm 6 mps 733 mmHg 88%
    22:00 +29°C° 0 mm 6 mps 733 mmHg 87%
    23:00 +29°C° 0 mm 6 mps 733 mmHg 86%

    19 July, Friday

    Time Temperature Precipitation Wind Pressure Humidity
    00:00 +29°C° 0 mm 6 mps 732 mmHg 86%
    01:00 +29°C° 0 mm 6 mps 733 mmHg 86%
    02:00 +28°C° 0 mm 6 mps 733 mmHg 87%
    03:00 +28°C° 0 mm 6 mps 733 mmHg 87%
    04:00 +28°C° 0 mm 5 mps 733 mmHg 88%
    05:00 +27°C° 0 mm 5 mps 733 mmHg 88%
    06:00 +27°C° 0 mm 5 mps 733 mmHg 88%
    07:00 +28°C° 0 mm 5 mps 734 mmHg 86%
    08:00 +29°C° 0 mm 6 mps 734 mmHg 84%
    09:00 +30°C° 0 mm 6 mps 734 mmHg 81%
    10:00 +32°C° 0 mm 6 mps 734 mmHg 79%
    11:00 +33°C° 0 mm 7 mps 734 mmHg 77%
    12:00 +34°C° 0 mm 7 mps 733 mmHg 76%
    13:00 +34°C° 0 mm 7 mps 733 mmHg 75%
    14:00 +34°C° 0 mm 8 mps 733 mmHg 75%
    15:00 +34°C° 0 mm 8 mps 732 mmHg 75%
    16:00 +33°C° 0 mm 8 mps 732 mmHg 78%
    17:00 +33°C° 0 mm 8 mps 732 mmHg 81%
    18:00 +32°C° 0 mm 7 mps 732 mmHg 84%
    19:00 +32°C° 0 mm 7 mps 732 mmHg 85%
    20:00 +30°C° 0 mm 6 mps 733 mmHg 85%
    21:00 +30°C° 0 mm 6 mps 733 mmHg 85%
    22:00 +30°C° 0.1 mm 6 mps 733 mmHg 86%
    23:00 +30°C° 0.1 mm 6 mps 733 mmHg 87%

    20 July, Saturday

    Time Temperature Precipitation Wind Pressure Humidity
    00:00 +30°C° 0.1 mm 5 mps 733 mmHg 87%
    01:00 +29°C° 0.1 mm 5 mps 733 mmHg 90%
    02:00 +29°C° 0.1 mm 5 mps 733 mmHg 92%
    03:00 +28°C° 0.1 mm 4 mps 733 mmHg 95%
    04:00 +28°C° 0.2 mm 4 mps 734 mmHg 95%
    05:00 +28°C° 0.2 mm 3 mps 734 mmHg 95%
    06:00 +28°C° 0.2 mm 3 mps 734 mmHg 95%
    07:00 +28°C° 0.1 mm 3 mps 735 mmHg 91%
    08:00 +29°C° 0.1 mm 3 mps 735 mmHg 87%
    09:00 +29°C° 0.1 mm 4 mps 736 mmHg 82%
    10:00 +30°C° 0 mm 3 mps 736 mmHg 77%
    11:00 +30°C° 0 mm 3 mps 736 mmHg 71%
    12:00 +30°C° 0 mm 3 mps 736 mmHg 65%
    13:00 +30°C° 0 mm 3 mps 736 mmHg 63%
    14:00 +30°C° 0 mm 3 mps 737 mmHg 61%
    15:00 +30°C° 0 mm 3 mps 737 mmHg 59%
    16:00 +29°C° 0 mm 3 mps 736 mmHg 62%
    17:00 +28°C° 0 mm 2 mps 736 mmHg 65%
    18:00 +27°C° 0 mm 2 mps 736 mmHg 68%
    19:00 +25°C° 0 mm 1 mps 736 mmHg 68%
    20:00 +24°C° 0 mm 1 mps 737 mmHg 68%
    21:00 +21°C° 0 mm 0 mps 737 mmHg 69%
    22:00 +20°C° 0 mm 0 mps 737 mmHg 71%
    23:00 +20°C° 0 mm 0 mps 737 mmHg 73%

    21 July, Sunday

    Time Temperature Precipitation Wind Pressure Humidity
    00:00 +19°C° 0 mm 0 mps 737 mmHg 75%
    01:00 +19°C° 0 mm 0 mps 737 mmHg 76%
    02:00 +18°C° 0 mm 0 mps 737 mmHg 77%
    03:00 +18°C° 0 mm 0 mps 737 mmHg 78%
    04:00 +21°C° 0 mm 1 mps 737 mmHg 78%
    05:00 +20°C° 0 mm 2 mps 736 mmHg 79%
    06:00 +21°C° 0 mm 2 mps 736 mmHg 79%
    07:00 +21°C° 0.7 mm 2 mps 736 mmHg 78%
    08:00 +23°C° 0.7 mm 1 mps 736 mmHg 77%
    09:00 +24°C° 0.7 mm 1 mps 736 mmHg 76%
    10:00 +22°C° 2 mm 3 mps 736 mmHg 79%
    11:00 +22°C° 2 mm 4 mps 735 mmHg 82%
    12:00 +21°C° 2 mm 6 mps 734 mmHg 85%
    13:00 +20°C° 0.5 mm 5 mps 734 mmHg 87%
    14:00 +20°C° 0.5 mm 5 mps 734 mmHg 89%
    15:00 +19°C° 0.5 mm 5 mps 734 mmHg 91%
    16:00 +19°C° 0 mm 5 mps 735 mmHg 91%
    17:00 +17°C° 0 mm 6 mps 735 mmHg 90%
    18:00 +17°C° 0 mm 6 mps 735 mmHg 90%
    19:00 +17°C° 0 mm 5 mps 736 mmHg 90%
    20:00 +16°C° 0 mm 5 mps 737 mmHg 90%
    21:00 +17°C° 0 mm 4 mps 737 mmHg 90%
    22:00 +16°C° 0 mm 5 mps 737 mmHg 88%
    23:00 +15°C° 0 mm 5 mps 738 mmHg 87%
    Show more